USA 342

Last updated on Sun Nov 02 2025 00:02:51 GMT+0000 (Coordinated Universal Time)

1 55263U 23008A 25304.75909714 .00000149 00000+0 00000+0 0 9992 2 55263 0.0121 274.2975 0000271 355.6532 67.4582 1.00272351 10220
UTC large
Height (km)
Speed (km/s)
/
Latitude / Longitude
Inclination (degrees)
Orbital Period (minutes)
Azimuth
Elevation
Range (km)
Doppler Factor

Next 0 passes for location: London (51.5072 / 0.1276)

Sorry there are no passes over London.